GW4005 Weather Reports


Display with metric or nautical units.
time (UTC)temp
F
wind
direction
speed
MPH
gust
MPH
rain 1hr
in
rain 24hr
in
rain mn
in
humidity
%
barometer
mb
20260508091015 43 173 3.0 9.0 0.00 0.44 0.00 88 1003.3
20260508090515 43 207 2.0 7.0 0.00 0.44 0.00 88 1003.3
20260508090042 43 148 3.0 7.0 0.00 0.44 0.00 88 1003.3
20260508085517 43 187 2.0 7.0 0.00 0.45 0.00 89 1003.2
20260508085019 43 180 3.0 7.0 0.00 0.45 0.00 88 1003.2
20260508084530 43 192 2.0 7.0 0.00 0.45 0.00 89 1003.2
20260508084016 43 181 2.0 7.0 0.00 0.45 0.00 89 1003.3
20260508083515 42 164 3.0 7.0 0.00 0.45 0.00 89 1003.3
20260508083030 42 193 3.0 7.0 0.00 0.45 0.00 89 1003.2
20260508082517 42 188 3.0 7.0 0.00 0.45 0.00 88 1003.2
20260508082014 42 149 3.0 7.0 0.00 0.45 0.00 88 1003.2
20260508081539 43 152 3.0 7.0 0.00 0.45 0.00 88 1003.3
20260508081017 43 164 3.0 5.0 0.00 0.45 0.00 87 1003.3
20260508080514 43 164 2.0 7.0 0.00 0.45 0.00 87 1003.3
20260508080035 43 164 3.0 8.0 0.00 0.45 0.00 88 1003.2
20260508075513 44 156 3.0 8.0 0.00 0.45 0.00 88 1003.5
20260508075013 44 179 4.0 8.0 0.00 0.45 0.00 88 1003.5
20260508074532 43 204 3.0 7.0 0.00 0.45 0.00 88 1003.4
20260508074016 44 200 3.0 7.0 0.00 0.45 0.00 88 1003.4
20260508073513 43 196 3.0 7.0 0.00 0.45 0.00 88 1003.4
20260508073035 43 179 3.0 7.0 0.00 0.45 0.00 87 1003.4
20260508072516 44 179 2.0 7.0 0.00 0.45 0.00 88 1003.4
20260508072016 44 179 2.0 7.0 0.00 0.45 0.00 87 1003.3
20260508071536 44 179 2.0 6.0 0.00 0.45 0.00 87 1003.3
20260508071015 44 179 2.0 6.0 0.00 0.45 0.00 88 1003.4
20260508070517 44 179 3.0 7.0 0.00 0.45 0.00 88 1003.4
20260508070046 44 179 3.0 9.0 0.00 0.45 0.00 88 1003.4
20260508065517 44 160 5.0 11.0 0.00 0.45 0.00 89 1003.6
20260508065013 44 177 4.0 11.0 0.00 0.45 0.00 88 1003.6
20260508064535 44 161 4.0 11.0 0.00 0.45 0.00 88 1003.7
20260508064017 44 168 4.0 10.0 0.00 0.45 0.00 88 1003.6
20260508063513 44 179 5.0 10.0 0.00 0.45 0.00 88 1003.6
20260508063034 44 180 3.0 8.0 0.00 0.45 0.00 89 1003.5
20260508062515 44 195 4.0 7.0 0.00 0.45 0.00 89 1003.4
20260508062016 44 206 2.0 8.0 0.00 0.45 0.00 89 1003.4
20260508061534 44 196 3.0 8.0 0.00 0.45 0.00 89 1003.5
20260508061014 44 187 3.0 9.0 0.00 0.45 0.00 89 1003.5
20260508060513 43 167 4.0 9.0 0.00 0.45 0.00 89 1003.5
20260508060036 43 186 3.0 10.0 0.00 0.45 0.00 89 1003.5
20260508055516 44 176 3.0 10.0 0.00 0.47 0.00 88 1003.5
20260508055016 44 181 5.0 11.0 0.00 0.47 0.00 88 1003.5
20260508054541 44 177 4.0 11.0 0.00 0.47 0.00 88 1003.6
20260508054014 44 168 3.0 12.0 0.00 0.47 0.00 87 1003.5
20260508053517 44 211 4.0 12.0 0.00 0.47 0.00 86 1003.5
20260508053030 45 175 4.0 12.0 0.00 0.47 0.00 86 1003.5
20260508052515 45 187 5.0 11.0 0.00 0.47 0.00 85 1003.6
20260508052014 45 150 4.0 14.0 0.00 0.47 0.00 85 1003.8
20260508051533 46 183 6.0 14.0 0.00 0.47 0.00 84 1003.9
20260508051015 46 232 4.0 10.0 0.00 0.47 0.00 84 1003.9
20260508050513 46 168 2.0 10.0 0.00 0.47 0.00 84 1003.6
20260508050030 46 218 2.0 9.0 0.00 0.47 0.00 83 1003.6
20260508045515 46 186 3.0 9.0 0.00 0.51 0.00 84 1003.6
20260508045014 46 193 5.0 9.0 0.00 0.51 0.00 84 1003.8
20260508044530 46 210 4.0 9.0 0.00 0.51 0.00 84 1003.6
20260508044014 46 183 3.0 10.0 0.00 0.51 0.00 84 1003.6
20260508043514 46 201 3.0 11.0 0.00 0.51 0.00 84 1003.8
20260508043030 46 212 5.0 13.0 0.00 0.51 0.00 83 1003.9
20260508042515 46 190 6.0 13.0 0.00 0.51 0.00 83 1003.9
20260508042014 46 214 5.0 12.0 0.00 0.51 0.00 83 1003.9
20260508041529 47 154 5.0 11.0 0.00 0.51 0.00 82 1003.7
20260508041014 47 225 4.0 11.0 0.00 0.51 0.00 82 1003.6
20260508040514 47 210 4.0 11.0 0.00 0.51 0.00 83 1003.6
20260508040036 46 220 3.0 10.0 0.00 0.51 0.00 83 1003.7
20260508035516 46 191 3.0 10.0 0.00 0.51 0.00 83 1003.7
20260508035015 46 177 3.0 10.0 0.00 0.51 0.00 83 1003.6
20260508034538 46 183 4.0 10.0 0.00 0.51 0.00 83 1003.6
20260508034014 46 205 3.0 9.0 0.00 0.51 0.00 83 1003.6
20260508033514 46 181 3.0 9.0 0.00 0.51 0.00 82 1003.4
20260508033036 46 192 5.0 10.0 0.00 0.51 0.00 82 1003.4
20260508032515 46 195 4.0 10.0 0.00 0.51 0.00 82 1003.4
20260508032015 46 179 1.0 6.0 0.00 0.51 0.00 82 1003.2
20260508031536 46 196 2.0 6.0 0.00 0.51 0.00 82 1003.2
20260508031013 46 180 1.0 4.0 0.00 0.51 0.00 81 1003.3
20260508030515 46 0 0.0 4.0 0.00 0.51 0.00 81 1003.4
20260508030030 46 0 2.0 6.0 0.00 0.51 0.00 80 1003.5
20260508025516 46 179 3.0 6.0 0.00 0.51 0.51 80 1003.5
20260508025014 46 164 3.0 7.0 0.00 0.51 0.51 80 1003.5
20260508024536 46 157 3.0 8.0 0.00 0.51 0.51 80 1003.6
20260508024015 46 144 4.0 9.0 0.00 0.51 0.51 79 1003.7
20260508023515 46 148 3.0 9.0 0.00 0.51 0.51 79 1003.7
20260508023036 47 152 4.0 8.0 0.00 0.51 0.51 78 1003.7
20260508022514 47 189 3.0 8.0 0.00 0.51 0.51 77 1003.7
20260508022019 47 151 4.0 8.0 0.00 0.51 0.51 77 1003.8
20260508021535 48 152 3.0 8.0 0.00 0.51 0.51 76 1003.8
20260508021018 48 204 3.0 9.0 0.00 0.51 0.51 76 1003.8
20260508020517 48 191 3.0 11.0 0.00 0.51 0.51 76 1003.7
20260508020033 48 171 3.0 11.0 0.00 0.51 0.51 76 1003.7
20260508015517 48 214 4.0 9.0 0.00 0.51 0.51 76 1003.7
20260508015015 48 196 3.0 9.0 0.00 0.51 0.51 76 1003.7
20260508014532 47 198 4.0 11.0 0.00 0.51 0.51 77 1003.7
20260508014014 47 163 5.0 11.0 0.00 0.51 0.51 77 1003.8
20260508013519 47 203 4.0 10.0 0.00 0.51 0.51 78 1003.7
20260508013035 47 161 4.0 10.0 0.00 0.51 0.51 79 1003.8
20260508012518 46 176 3.0 9.0 0.00 0.51 0.51 81 1003.7
20260508012019 46 154 4.0 9.0 0.00 0.51 0.51 82 1003.6
20260508011530 46 226 3.0 8.0 0.00 0.51 0.51 84 1003.6
20260508011017 45 166 4.0 8.0 0.00 0.51 0.51 85 1003.6
20260508010518 45 212 2.0 9.0 0.00 0.51 0.51 87 1003.7
20260508010036 45 168 3.0 9.0 0.00 0.51 0.51 87 1003.6
20260508005517 45 207 2.0 9.0 0.00 0.51 0.51 88 1003.6
20260508005018 45 179 3.0 9.0 0.00 0.51 0.51 88 1003.6
20260508004534 45 170 5.0 9.0 0.00 0.51 0.51 88 1003.6
20260508004016 45 150 4.0 9.0 0.00 0.51 0.51 88 1003.5
20260508003517 45 165 4.0 9.0 0.00 0.51 0.51 88 1003.6
20260508003033 45 151 4.0 9.0 0.00 0.51 0.51 88 1003.7
20260508002515 45 156 4.0 9.0 0.00 0.51 0.51 88 1003.6
20260508002017 45 182 4.0 8.0 0.00 0.51 0.51 88 1003.5
20260508001547 45 195 3.0 7.0 0.00 0.51 0.51 88 1003.7
20260508001018 45 147 2.0 7.0 0.00 0.51 0.51 89 1003.6
20260508000518 44 173 2.0 7.0 0.00 0.51 0.51 89 1003.6
20260508000035 44 144 3.0 8.0 0.00 0.51 0.51 89 1003.6
20260507235521 44 162 3.0 8.0 0.00 0.51 0.51 89 1003.6
20260507235017 44 175 2.0 11.0 0.00 0.51 0.51 89 1003.5
20260507234534 44 152 4.0 11.0 0.00 0.51 0.51 89 1003.5
20260507234017 44 164 4.0 10.0 0.00 0.51 0.51 89 1003.6
20260507233514 44 176 3.0 9.0 0.00 0.51 0.51 89 1003.6
20260507233034 44 200 4.0 9.0 0.00 0.51 0.51 89 1003.5
20260507232516 45 181 4.0 10.0 0.00 0.51 0.51 89 1003.5
20260507232017 45 183 3.0 10.0 0.00 0.51 0.51 89 1003.5
20260507231531 45 173 4.0 15.0 0.00 0.51 0.51 89 1003.3
20260507231013 45 214 4.0 15.0 0.00 0.51 0.51 89 1003.0
20260507230514 45 163 6.0 11.0 0.00 0.51 0.51 89 1003.3
20260507230036 45 150 4.0 12.0 0.00 0.51 0.51 88 1003.3
20260507225513 45 214 5.0 13.0 0.00 0.51 0.51 88 1003.3
20260507225017 46 199 5.0 13.0 0.00 0.51 0.51 87 1003.3
20260507224535 46 209 3.0 11.0 0.00 0.51 0.51 87 1003.2
20260507224013 46 190 4.0 12.0 0.00 0.51 0.51 86 1003.2
20260507223515 47 189 4.0 12.0 0.00 0.51 0.51 86 1003.2
20260507223031 47 210 5.0 12.0 0.00 0.51 0.51 85 1003.1
20260507222516 47 239 6.0 16.0 0.00 0.51 0.51 85 1003.1
20260507222016 48 160 7.0 16.0 0.00 0.51 0.51 84 1003.1
20260507221533 48 191 6.0 13.0 0.00 0.51 0.51 83 1003.1
20260507221016 48 180 4.0 11.0 0.00 0.51 0.51 82 1003.1
20260507220513 48 183 5.0 12.0 0.00 0.51 0.51 81 1003.1
20260507220033 49 201 6.0 12.0 0.00 0.51 0.51 81 1003.0
20260507215515 49 181 4.0 12.0 0.00 0.51 0.51 80 1002.9
20260507215015 50 148 4.0 12.0 0.00 0.51 0.51 79 1003.0
20260507214530 50 195 5.0 12.0 0.00 0.51 0.51 79 1002.9
20260507214013 50 188 4.0 12.0 0.00 0.51 0.51 79 1002.8
20260507213514 50 214 2.0 12.0 0.00 0.51 0.51 80 1002.9
20260507213040 50 213 7.0 12.0 0.00 0.51 0.51 80 1002.8
20260507212516 50 193 5.0 14.0 0.00 0.51 0.51 80 1002.8
20260507212017 50 175 5.0 14.0 0.00 0.51 0.51 80 1002.8
20260507211543 50 146 4.0 13.0 0.00 0.51 0.51 81 1002.8
20260507211016 50 177 6.0 15.0 0.00 0.51 0.51 80 1002.8
20260507210514 50 195 7.0 15.0 0.00 0.51 0.51 80 1002.7
20260507210035 51 189 5.0 15.0 0.00 0.51 0.51 79 1002.6
20260507205513 51 196 7.0 15.0 0.00 0.51 0.51 79 1002.7
20260507205014 52 185 5.0 11.0 0.00 0.51 0.51 78 1002.6
20260507204533 52 198 4.0 14.0 0.00 0.51 0.51 77 1002.6
20260507204013 53 181 5.0 14.0 0.00 0.51 0.51 77 1002.4
20260507203518 53 199 4.0 14.0 0.00 0.51 0.51 77 1002.4
20260507203031 52 208 5.0 17.0 0.00 0.51 0.51 79 1002.4
20260507202515 52 155 6.0 17.0 0.00 0.51 0.51 80 1002.5
20260507202014 52 163 7.0 17.0 0.00 0.51 0.51 82 1002.5
20260507201536 52 191 7.0 14.0 0.00 0.51 0.51 84 1002.5
20260507201016 51 191 7.0 16.0 0.00 0.51 0.51 85 1002.4
20260507200515 51 191 6.0 17.0 0.00 0.51 0.51 86 1002.6
20260507200037 51 201 7.0 17.0 0.00 0.51 0.51 87 1002.6
20260507195517 50 161 8.0 17.0 0.00 0.51 0.51 87 1002.7
20260507195015 50 198 6.0 15.0 0.00 0.51 0.51 88 1002.7
20260507194532 50 180 6.0 15.0 0.00 0.51 0.51 88 1002.6
20260507194012 50 201 8.0 15.0 0.00 0.51 0.51 88 1002.7
20260507193512 50 148 6.0 17.0 0.00 0.51 0.51 90 1002.7
20260507193038 50 160 6.0 17.0 0.00 0.51 0.51 90 1002.7
20260507192516 50 204 8.0 17.0 0.00 0.51 0.51 90 1002.7
20260507192013 50 185 7.0 14.0 0.00 0.51 0.51 90 1002.8
20260507191531 50 187 4.0 13.0 0.00 0.51 0.51 90 1002.7
20260507191013 50 181 7.0 13.0 0.00 0.51 0.51 90 1002.7
20260507190513 51 192 6.0 13.0 0.00 0.51 0.51 91 1002.7
20260507190032 51 195 7.0 14.0 0.00 0.51 0.51 91 1002.6
20260507185514 51 161 6.0 14.0 0.00 0.51 0.51 91 1002.6
20260507185017 52 190 6.0 14.0 0.00 0.51 0.51 93 1002.5
20260507184533 52 212 5.0 14.0 0.00 0.51 0.51 94 1002.5
20260507184016 51 218 4.0 10.0 0.00 0.51 0.51 94 1002.5
20260507183515 51 206 3.0 12.0 0.00 0.51 0.51 94 1002.5
20260507183034 51 208 4.0 12.0 0.00 0.51 0.51 94 1002.5
20260507182513 51 160 5.0 12.0 0.00 0.51 0.51 95 1002.8
20260507182013 50 198 6.0 12.0 0.00 0.51 0.51 96 1002.9
20260507181531 50 161 5.0 13.0 0.00 0.51 0.51 96 1002.9
20260507181014 49 191 6.0 13.0 0.00 0.51 0.51 95 1002.8
20260507180517 49 216 5.0 11.0 0.00 0.51 0.51 95 1002.8
20260507180045 49 211 4.0 12.0 0.01 0.51 0.51 95 1002.9
20260507175515 49 171 5.0 12.0 0.01 0.51 0.51 96 1002.9
20260507175015 48 173 6.0 15.0 0.01 0.51 0.51 95 1002.9
20260507174533 49 171 4.0 15.0 0.01 0.51 0.51 95 1002.9
20260507174015 49 236 7.0 15.0 0.01 0.51 0.51 96 1002.9
20260507173519 49 201 6.0 14.0 0.01 0.51 0.51 95 1002.9
20260507173036 49 160 4.0 14.0 0.01 0.51 0.51 96 1003.0
20260507172516 49 217 7.0 14.0 0.01 0.51 0.51 96 1003.1
20260507172015 48 223 6.0 13.0 0.01 0.51 0.51 96 1003.2
20260507171529 47 223 6.0 14.0 0.01 0.51 0.51 96 1003.2
20260507171015 46 198 7.0 14.0 0.01 0.51 0.51 96 1003.1
20260507170513 46 229 4.0 16.0 0.01 0.51 0.51 96 1002.5
20260507170045 46 210 4.0 16.0 0.00 0.50 0.50 96 1002.7
20260507165513 46 169 5.0 16.0 0.00 0.50 0.50 95 1002.9
20260507165012 46 195 7.0 13.0 0.00 0.50 0.50 96 1003.3
20260507164531 46 196 4.0 13.0 0.00 0.50 0.50 96 1003.1
20260507164015 45 173 5.0 15.0 0.00 0.50 0.50 96 1003.0
20260507163514 45 206 7.0 17.0 0.01 0.50 0.50 96 1003.5
20260507163030 44 185 6.0 17.0 0.01 0.50 0.50 96 1003.6
20260507162513 44 179 8.0 18.0 0.01 0.50 0.50 96 1003.7
20260507162014 44 187 7.0 18.0 0.01 0.50 0.50 95 1003.9
20260507161530 44 212 7.0 18.0 0.01 0.50 0.50 95 1003.6
20260507161016 44 188 6.0 16.0 0.02 0.50 0.50 95 1003.2
20260507160516 45 195 7.0 13.0 0.03 0.50 0.50 95 1003.1
20260507160032 45 195 5.0 13.0 0.04 0.50 0.50 95 1003.0
20260507155513 45 252 3.0 9.0 0.05 0.50 0.50 95 1002.7
20260507155012 45 220 3.0 9.0 0.06 0.50 0.50 95 1003.3
20260507154532 45 200 4.0 13.0 0.07 0.50 0.50 95 1003.0
20260507154019 46 181 5.0 15.0 0.08 0.50 0.50 95 1003.7
20260507153514 46 211 5.0 15.0 0.08 0.49 0.49 95 1003.9
20260507153031 46 202 7.0 13.0 0.09 0.49 0.49 95 1003.6
20260507152515 46 220 4.0 12.0 0.10 0.49 0.49 96 1003.5
20260507152015 45 173 7.0 12.0 0.11 0.49 0.49 95 1002.7
20260507151533 45 197 5.0 14.0 0.11 0.48 0.48 95 1003.9
20260507151018 45 139 4.0 14.0 0.13 0.48 0.48 95 1003.9
20260507150516 45 158 7.0 14.0 0.13 0.47 0.47 95 1003.9
20260507150030 45 179 3.0 12.0 0.14 0.46 0.46 95 1003.9
20260507145515 45 206 4.0 12.0 0.15 0.45 0.45 95 1003.7
20260507145016 45 236 4.0 12.0 0.16 0.44 0.44 95 1003.6
20260507144530 45 191 3.0 11.0 0.17 0.43 0.43 95 1003.7
20260507144014 45 196 5.0 11.0 0.16 0.41 0.41 95 1003.6
20260507143513 46 195 4.0 8.0 0.17 0.41 0.41 95 1003.5
20260507143031 46 195 4.0 8.0 0.18 0.40 0.40 95 1003.4
20260507142518 46 180 4.0 9.0 0.18 0.39 0.39 94 1003.6
20260507142015 46 192 3.0 9.0 0.19 0.38 0.38 94 1003.7
20260507141529 47 263 3.0 8.0 0.19 0.37 0.37 94 1003.6
20260507141015 48 188 3.0 8.0 0.18 0.35 0.35 94 1004.0
20260507140516 49 245 2.0 5.0 0.18 0.34 0.34 95 1003.9
20260507140036 49 203 2.0 6.0 0.18 0.32 0.32 95 1003.8
20260507135514 49 221 2.0 11.0 0.18 0.30 0.30 95 1004.0
20260507135016 49 258 3.0 11.0 0.17 0.28 0.28 94 1003.8
20260507134530 51 279 5.0 11.0 0.15 0.26 0.26 96 1003.7
20260507134014 50 210 3.0 8.0 0.14 0.25 0.25 96 1003.3
20260507133513 48 131 4.0 8.0 0.12 0.23 0.23 96 1003.5
20260507133037 47 126 4.0 14.0 0.11 0.22 0.22 96 1003.9
20260507132512 46 123 5.0 15.0 0.09 0.20 0.20 95 1004.2
20260507132014 46 167 6.0 15.0 0.08 0.19 0.19 95 1004.6
20260507131538 46 206 5.0 14.0 0.07 0.18 0.18 95 1004.8
20260507131014 46 198 5.0 16.0 0.06 0.17 0.17 94 1004.8
20260507130517 46 195 7.0 16.0 0.04 0.15 0.15 94 1005.0
20260507130036 46 149 5.0 14.0 0.02 0.13 0.13 94 1005.0
20260507125515 46 216 6.0 14.0 0.01 0.12 0.12 94 1005.0
20260507125014 46 202 6.0 14.0 0.00 0.11 0.11 94 1004.8
20260507124532 46 141 4.0 13.0 0.00 0.11 0.11 94 1004.7
20260507124016 46 152 4.0 12.0 0.00 0.11 0.11 94 1004.7
20260507123514 46 241 5.0 15.0 0.00 0.11 0.11 94 1004.7
20260507123034 46 197 4.0 15.0 0.01 0.11 0.11 94 1004.6
20260507122518 46 189 4.0 14.0 0.01 0.11 0.11 93 1004.5
20260507122018 47 214 4.0 11.0 0.02 0.11 0.11 93 1004.6
20260507121533 47 201 3.0 11.0 0.03 0.11 0.11 93 1004.3
20260507121015 47 197 3.0 10.0 0.03 0.11 0.11 93 1003.9
20260507120514 47 191 3.0 10.0 0.03 0.11 0.11 92 1004.4
20260507120033 48 214 4.0 10.0 0.03 0.11 0.11 93 1004.5
20260507115517 48 220 4.0 10.0 0.03 0.11 0.11 92 1004.4
20260507115013 49 216 4.0 10.0 0.03 0.11 0.11 92 1004.2
20260507114530 49 240 3.0 8.0 0.03 0.11 0.11 92 1004.2
20260507114014 49 233 3.0 8.0 0.03 0.11 0.11 93 1004.0
20260507113514 50 196 2.0 8.0 0.03 0.11 0.11 93 1004.3
20260507113031 50 260 2.0 6.0 0.02 0.10 0.10 93 1004.4
20260507112518 49 177 3.0 11.0 0.02 0.10 0.10 93 1004.2
20260507112015 49 167 4.0 13.0 0.01 0.09 0.09 92 1004.4
20260507111532 49 187 5.0 13.0 0.00 0.08 0.08 91 1004.8
20260507111015 49 203 4.0 12.0 0.00 0.08 0.08 91 1004.9
20260507110513 49 184 3.0 12.0 0.00 0.08 0.08 90 1004.4
20260507110032 50 204 3.0 9.0 0.00 0.08 0.08 88 1004.2
20260507105517 52 197 3.0 10.0 0.00 0.08 0.08 87 1004.4
20260507105017 55 227 3.0 11.0 0.00 0.08 0.08 89 1004.3
20260507104545 56 160 6.0 11.0 0.00 0.08 0.08 92 1003.8
20260507104017 56 196 4.0 11.0 0.00 0.08 0.08 92 1003.7
20260507103516 56 181 6.0 13.0 0.00 0.08 0.08 92 1003.7
20260507103053 56 168 5.0 13.0 0.00 0.08 0.08 92 1003.8
20260507102517 56 163 4.0 10.0 0.00 0.08 0.08 92 1003.7
20260507102017 56 166 4.0 14.0 0.00 0.08 0.08 92 1003.5
20260507101538 56 189 5.0 14.0 0.00 0.08 0.08 92 1003.4
20260507101020 56 143 6.0 14.0 0.00 0.08 0.08 92 1003.6
20260507100515 56 136 7.0 14.0 0.01 0.08 0.08 92 1003.8
20260507100033 56 181 7.0 16.0 0.01 0.08 0.08 92 1004.0
20260507095517 56 171 8.0 18.0 0.01 0.08 0.08 92 1003.9
20260507095016 56 163 8.0 20.0 0.01 0.08 0.08 92 1004.1
20260507094537 56 168 9.0 20.0 0.01 0.08 0.08 92 1004.2
20260507094017 57 193 7.0 19.0 0.01 0.08 0.08 92 1004.2
20260507093518 57 158 5.0 19.0 0.02 0.08 0.08 92 1004.1
20260507093037 57 167 6.0 22.0 0.02 0.08 0.08 92 1004.2
20260507092517 57 173 7.0 22.0 0.02 0.08 0.08 92 1004.0
20260507092016 57 158 6.0 22.0 0.02 0.08 0.08 92 1003.7
20260507091539 57 147 7.0 16.0 0.02 0.08 0.08 92 1004.0